Location: Unspecified
(22.6800°N, 112.2000°E)
Time: 14:18:01
(UTC+08:00)

S-56A Canister/Altair - Pass Details

Date: 27 July 2021
Orbit: 632 x 2500 km, 38.9° (Epoch: 24 September)

Event Time Altitude Azimuth Distance (km) Brightness Sun altitude
Rises 20:05:05 0° 294° (WNW) 6,178 14.4 -11.4°
Reaches altitude 10° 20:09:43 10° 301° (WNW) 5,133 13.2 -12.4°
Maximum altitude 20:23:08 40° 6° (N) 2,911 10.6 -15.1°
Drops below altitude 10° 20:33:30 10° 73° (ENE) 4,005 10.8 -17.2°
Enters shadow 20:34:24 - 76° (ENE) 4,207 10.9 -17.4°
Sets 20:36:37 0° 81° (E) 4,743 - -17.8°
